This is the latest recevied weather packets stored in our database for station/object W1GK. If no packets are shown the sender has not sent any weather packets the latest 10 day(s).
| Time | Temp. | Humidity | Pressure | Rain* | Wind** | Luminosity | Snow |
|---|---|---|---|---|---|---|---|
| 1787626198 | 36.11° C | 17% | 1014.7 hPa | 0 mm | - | 0 W/m² | - |
| 1787625599 | 36.11° C | 18% | 1014.6 hPa | 0 mm | - | 0 W/m² | - |
| 1787624998 | 36.67° C | 18% | 1014.5 hPa | 0 mm | - | 0 W/m² | - |
| 1787624398 | 37.22° C | 18% | 1014.5 hPa | 0 mm | - | 14 W/m² | - |
| 1787623799 | 37.22° C | 18% | 1014.5 hPa | 0 mm | - | 28 W/m² | - |
| 1787623198 | 37.22° C | 17% | 1014.1 hPa | 0 mm | - | 33 W/m² | - |
| 1787622599 | 37.22° C | 17% | 1014.1 hPa | 0 mm | - | 33 W/m² | - |
| 1787621998 | 37.78° C | 18% | 1014 hPa | 0 mm | - | 37 W/m² | - |
| 1787621399 | 37.78° C | 17% | 1014 hPa | 0 mm | - | 120 W/m² | - |
| 1787620798 | 38.33° C | 17% | 1014 hPa | 0 mm | - | 134 W/m² | - |
| 1787620197 | 37.78° C | 18% | 1014 hPa | 0 mm | - | 192 W/m² | - |
| 1787619597 | 38.33° C | 18% | 1014 hPa | 0 mm | - | 105 W/m² | - |
| 1787618997 | 38.33° C | 18% | 1014 hPa | 0 mm | - | 111 W/m² | - |
| 1787618398 | 38.33° C | 19% | 1014 hPa | 0 mm | - | 315 W/m² | - |
| 1787617797 | 39.44° C | 19% | 1014 hPa | 0 mm | - | 120 W/m² | - |
| 1787617196 | 40° C | 18% | 1014 hPa | 0 mm | - | 399 W/m² | - |
| 1787616598 | 40.56° C | 17% | 1014.1 hPa | 0 mm | - | 441 W/m² | - |
| 1787615997 | 40.56° C | 16% | 1014 hPa | 0 mm | - | 471 W/m² | - |
| 1787615397 | 41.11° C | 16% | 1014 hPa | 0 mm | - | 422 W/m² | - |
| 1787614796 | 41.11° C | 16% | 1013.8 hPa | 0 mm | - | 174 W/m² | - |
| 1787614199 | 41.67° C | 16% | 1013.9 hPa | 0 mm | - | 582 W/m² | - |
| 1787613597 | 41.67° C | 16% | 1014.2 hPa | 0 mm | - | 612 W/m² | - |
| 1787612997 | 42.22° C | 16% | 1014.1 hPa | 0 mm | - | 666 W/m² | - |
| 1787612398 | 41.67° C | 16% | 1014.3 hPa | 0 mm | - | 689 W/m² | - |
| 1787611797 | 40.56° C | 15% | 1014.3 hPa | 0 mm | - | 659 W/m² | - |
* Rain latest hour (hover to see other rain measurements)
** Current wind speed in m/s (hover to see current wind gust speed)